Location: Unspecified
(0.0000°N, 0.0000°E)
Time: 19:53:58
(UTC+00:00)

JUGNU - Visible Passes

Search period start: 26 June 2019 00:00
Search period end: 06 July 2019 00:00
Orbit: 836 x 864 km, 20.0° (Epoch: 25 June)

Date Brightness Start Highest point End Pass type
(mag) Time Alt. Az. Time Alt. Az. Time Alt. Az.
26 Jun ? 03:32:11 23° N 03:32:11 23° N 03:35:51 10° NE visible
26 Jun ? 05:18:38 10° NNW 05:20:51 12° N 05:23:04 10° NNE visible
27 Jun ? 03:17:54 19° N 03:17:54 19° N 03:20:32 10° NNE visible
27 Jun ? 05:04:01 10° NNW 05:05:50 11° N 05:07:39 10° N visible
27 Jun ? 19:41:23 10° SSW 19:42:25 11° S 19:42:25 11° S visible
28 Jun ? 03:03:36 15° NNE 03:03:36 15° NNE 03:05:14 10° NNE visible
28 Jun ? 04:49:27 10° NNW 04:50:49 11° N 04:52:11 10° N visible
28 Jun ? 19:25:59 10° SSW 19:28:26 13° S 19:28:26 13° S visible
29 Jun ? 02:49:18 12° NNE 02:49:18 12° NNE 02:49:56 10° NNE visible
29 Jun ? 04:35:00 10° NNW 04:35:48 10° N 04:36:36 10° N visible
29 Jun ? 19:10:37 10° SSW 19:13:33 14° S 19:14:30 13° SSE visible
30 Jun ? 18:55:16 10° SSW 18:58:30 15° SSE 19:00:37 12° SE visible
01 Jul ? 18:39:55 10° SSW 18:43:27 16° SSE 18:46:49 10° SE visible
01 Jul ? 20:27:35 10° SW 20:28:42 15° SW 20:28:42 15° SW visible
02 Jul ? 05:39:01 10° N 05:40:57 12° N 05:42:53 10° NNE visible
02 Jul ? 18:24:34 10° SSW 18:28:23 17° SSE 18:32:11 10° SE visible
02 Jul ? 20:12:19 10° SW 20:14:58 24° SSW 20:14:58 24° SSW visible
03 Jul ? 05:23:36 10° NNW 05:25:55 12° N 05:28:14 10° NNE visible
03 Jul ? 19:57:04 10° SW 20:01:20 37° SSW 20:01:20 37° SSW visible
04 Jul ? 05:08:12 10° NNW 05:10:53 13° N 05:13:33 10° NE visible
04 Jul ? 19:41:49 10° SW 19:47:36 48° SSE 19:47:46 48° SSE visible
05 Jul ? 04:52:50 10° NNW 04:55:51 14° NNE 04:58:51 10° NE visible
05 Jul ? 19:26:35 10° SW 19:32:27 54° SSE 19:34:16 39° ESE visible
05 Jul ? 21:15:39 10° W 21:16:10 13° W 21:16:10 13° W visible
